Location: Drocourt
(49.0571°N, 1.7669°E)
Time: 14:42:42
(UTC+00:00)

Vanguard 2 Rocket - Pass Details

Date: 18 April 2024
Orbit: 556 x 3304 km, 32.9° (Epoch: 22 May)

Event Time Altitude Azimuth Distance (km) Brightness Sun altitude
Rises 21:32:37 0° 225° (SW) 6,426 11.2 -22.3°
Reaches altitude 10° 21:36:57 10° 218° (SW) 5,699 10.8 -22.8°
Maximum altitude 21:53:15 39° 158° (SSE) 4,280 9.7 -24.3°
Drops below altitude 10° 22:10:05 10° 99° (E) 5,900 10.7 -25.6°
Sets 22:14:38 0° 92° (E) 6,668 11.0 -26.0°
